Weather in Baltsi

Russia / Republic of Tatarstan     56°20′46″N   50°12′24″E
temp.,
°C
wind,
m/s
gust,
m/s
humid.,
%
clouds,
%
prec.,
mm/h
press.,
hPa
HPBL,
m
16 april, fri
fri1600:00+9nne7119899 0.0 1020310
03:00+9ne61090100 0.0 1022528
06:00+7ne7128996 0.0 1023469
09:00+8ene79757 0.0 1025574
12:00+12ne78594 0.0 1025839
15:00+12ne77498 0.0 1025983
18:00+10ne596582 0.0 1025353
21:00+6ne511695 0.0 1027295
17 april, sat
sat1700:00+4ne510695 0.0 1027233
03:00+2ne410740 0.0 1028197
06:00+2ne510710 0.0 1028257
09:00+7ene68480 0.0 1028545
12:00+10ne66370 0.0 10271018
15:00+11ne55394 0.0 10261197
18:00+9nne47553 0.0 1026167
21:00+5ne35670 0.0 102674
18 april, sun
sun1800:00+4ne36750 0.0 102693
03:00+2nne34800 0.0 102659
06:00+3nne36810 0.0 1026163
09:00+8ne56595 0.0 1026681
12:00+11ne675074 0.0 10251530
15:00+8ne8861100 0.0 10261090
18:00+6ne5959100 0.0 1027638
21:00+4ene61248100 0.0 1029558
19 april, mon
mon1900:00+2ene61259100 0.0 1030517
03:00+1ene61257100 0.0 1031510
06:000ene71455100 0.0 1032586
09:00+4e912360 0.0 10331287
12:00+6e911300 0.0 10331614
15:00+7e810290 0.0 10321664
18:00+5e610370 0.0 1033628
21:00+1e512470 0.0 1034330
20 april, tue
tue2000:000e513530 0.0 1034313
03:00−1e511530 0.0 1035265
06:000ese510530 0.0 1035292
09:00+5ese68350 0.0 1035962
12:00+8ese78300 0.0 10341269
15:00+9se68290 0.0 10321360
18:00+7se484182 0.0 1031203
21:00+3ese51351100 0.0 1031257